| time (UTC) | temp C | wind direction | speed KPH | gust KPH | rain 1hr cm | rain 24hr cm | rain mn cm | humidity % | barometer mb |
| 20260505041553 | 14 | 286 | 0.0 | 8.0 | 0.00 | 0.00 | 0.00 | 58 | 1011.0 |
| 20260505040052 | 14 | 234 | 0.0 | 6.4 | 0.00 | 0.00 | 0.00 | 57 | 1010.9 |
| 20260505034554 | 15 | 338 | 1.6 | 4.8 | 0.00 | 0.00 | 0.00 | 56 | 1011.0 |
| 20260505033049 | 15 | 0 | 1.6 | 8.0 | 0.00 | 0.00 | 0.00 | 55 | 1010.8 |
| 20260505031548 | 15 | 0 | 1.6 | 6.4 | 0.00 | 0.00 | 0.00 | 54 | 1010.7 |
| 20260505030049 | 15 | 320 | 1.6 | 9.7 | 0.00 | 0.00 | 0.00 | 53 | 1010.9 |
| 20260505024551 | 15 | 154 | 3.2 | 9.7 | 0.00 | 0.00 | 0.00 | 52 | 1010.8 |
| 20260505023056 | 15 | 204 | 1.6 | 9.7 | 0.00 | 0.00 | 0.00 | 51 | 1010.9 |
| 20260505021549 | 16 | 182 | 1.6 | 6.4 | 0.00 | 0.00 | 0.00 | 50 | 1010.9 |
| 20260505020052 | 16 | 0 | 1.6 | 12.9 | 0.00 | 0.00 | 0.00 | 49 | 1010.8 |
| 20260505014548 | 16 | 247 | 1.6 | 9.7 | 0.00 | 0.00 | 0.00 | 48 | 1010.6 |
| 20260505013044 | 16 | 0 | 1.6 | 6.4 | 0.00 | 0.00 | 0.00 | 48 | 1010.4 |
| 20260505011554 | 17 | 280 | 1.6 | 9.7 | 0.00 | 0.00 | 0.00 | 47 | 1010.0 |
| 20260505010051 | 17 | 251 | 1.6 | 9.7 | 0.00 | 0.00 | 0.00 | 46 | 1009.7 |
| 20260505004552 | 17 | 185 | 3.2 | 9.7 | 0.00 | 0.00 | 0.00 | 44 | 1009.2 |
| 20260505003050 | 18 | 136 | 1.6 | 11.3 | 0.00 | 0.00 | 0.00 | 43 | 1009.0 |
| 20260505001549 | 18 | 30 | 3.2 | 14.5 | 0.00 | 0.00 | 0.00 | 42 | 1008.5 |
| 20260505000055 | 19 | 192 | 1.6 | 11.3 | 0.00 | 0.00 | 0.00 | 39 | 1008.2 |
| 20260504234548 | 20 | 0 | 0.0 | 3.2 | 0.00 | 0.00 | 0.00 | 35 | 1007.9 |
| 20260504233053 | 20 | 157 | 0.0 | 8.0 | 0.00 | 0.00 | 0.00 | 33 | 1007.6 |
| 20260504231548 | 21 | 0 | 0.0 | 4.8 | 0.00 | 0.00 | 0.00 | 33 | 1007.4 |
| 20260504230049 | 21 | 171 | 0.0 | 6.4 | 0.00 | 0.00 | 0.00 | 33 | 1007.1 |
| 20260504224550 | 21 | 196 | 0.0 | 11.3 | 0.00 | 0.00 | 0.00 | 33 | 1007.0 |
| 20260504223049 | 21 | 232 | 3.2 | 11.3 | 0.00 | 0.00 | 0.00 | 32 | 1006.9 |
| 20260504221548 | 21 | 0 | 1.6 | 9.7 | 0.00 | 0.00 | 0.00 | 31 | 1007.0 |
| 20260504220109 | 22 | 166 | 4.8 | 12.9 | 0.00 | 0.00 | 0.00 | 29 | 1006.8 |
| 20260504214551 | 22 | 198 | 1.6 | 12.9 | 0.00 | 0.00 | 0.00 | 31 | 1006.9 |
| 20260504213051 | 22 | 0 | 1.6 | 11.3 | 0.00 | 0.00 | 0.00 | 30 | 1006.8 |
| 20260504211554 | 22 | 151 | 3.2 | 16.1 | 0.00 | 0.00 | 0.00 | 29 | 1006.9 |
| 20260504210045 | 22 | 266 | 4.8 | 12.9 | 0.00 | 0.00 | 0.00 | 29 | 1006.9 |
| 20260504204545 | 22 | 316 | 4.8 | 16.1 | 0.00 | 0.00 | 0.00 | 29 | 1006.9 |
| 20260504203045 | 22 | 183 | 6.4 | 14.5 | 0.00 | 0.00 | 0.00 | 29 | 1006.7 |
| 20260504201551 | 22 | 194 | 3.2 | 20.9 | 0.00 | 0.00 | 0.00 | 27 | 1006.8 |
| 20260504200055 | 22 | 309 | 3.2 | 12.9 | 0.00 | 0.00 | 0.00 | 28 | 1006.9 |
| 20260504194550 | 22 | 178 | 4.8 | 16.1 | 0.00 | 0.00 | 0.00 | 28 | 1006.9 |
| 20260504193050 | 22 | 317 | 3.2 | 16.1 | 0.00 | 0.00 | 0.00 | 28 | 1006.8 |
| 20260504191555 | 22 | 323 | 3.2 | 12.9 | 0.00 | 0.00 | 0.00 | 27 | 1007.0 |
| 20260504190110 | 22 | 206 | 3.2 | 11.3 | 0.00 | 0.00 | 0.00 | 30 | 1007.3 |
| 20260504184610 | 22 | 260 | 4.8 | 17.7 | 0.00 | 0.00 | 0.00 | 28 | 1007.5 |
| 20260504183053 | 21 | 212 | 4.8 | 17.7 | 0.00 | 0.00 | 0.00 | 28 | 1007.5 |
| 20260504181551 | 21 | 297 | 4.8 | 16.1 | 0.00 | 0.00 | 0.00 | 29 | 1007.5 |
| 20260504180059 | 21 | 303 | 4.8 | 24.1 | 0.00 | 0.00 | 0.00 | 30 | 1007.4 |
| 20260504174552 | 21 | 182 | 4.8 | 16.1 | 0.00 | 0.00 | 0.00 | 32 | 1007.8 |
| 20260504173055 | 21 | 284 | 6.4 | 17.7 | 0.00 | 0.00 | 0.00 | 31 | 1007.9 |
| 20260504171551 | 20 | 166 | 4.8 | 16.1 | 0.00 | 0.00 | 0.00 | 33 | 1008.0 |
| 20260504081549 | 6 | 100 | 0.0 | 3.2 | 0.00 | 0.00 | 0.00 | 63 | 1010.8 |